Location: El Limón
(10.3059°N, 67.6321°W)
Time: 19:43:16
(UTC+00:00)

Cosmos 2266 Rocket - Visible Passes

Search period start: 18 July 2024 00:00
Search period end: 28 July 2024 00:00
Orbit: 934 x 1007 km, 82.9° (Epoch: 17 July)

Date Brightness Start Highest point End Pass type
(mag) Time Alt. Az. Time Alt. Az. Time Alt. Az.
18 Jul 6.0 08:29:13 10° NNE 08:34:04 25° E 08:38:55 10° SE visible
19 Jul 4.6 08:52:05 10° N 08:57:57 54° E 09:03:48 10° SSE visible
20 Jul 3.8 09:15:46 10° N 09:21:45 72° W 09:27:45 10° S visible
21 Jul 6.3 07:56:29 10° NE 08:00:28 18° E 08:04:28 10° SE visible
21 Jul 4.6 09:40:13 10° NNW 09:45:31 33° W 09:50:50 10° SSW visible
22 Jul 5.2 08:18:49 10° NNE 08:24:22 39° E 08:29:57 10° SSE visible
23 Jul 3.9 08:42:11 10° N 08:48:12 84° E 08:54:15 10° S visible
24 Jul 6.6 07:24:19 10° ENE 07:26:53 13° E 07:29:26 10° ESE visible
24 Jul 4.1 09:06:17 10° NNW 09:11:59 46° W 09:17:43 10° SSW visible
25 Jul 5.6 07:45:42 10° NNE 07:50:48 29° E 07:55:53 10° SE visible
25 Jul 5.0 09:31:20 10° NW 09:35:44 21° W 09:40:09 10° SW visible
26 Jul 4.3 08:08:43 10° N 08:14:39 62° E 08:18:49 20° SSE visible
27 Jul 3.8 08:32:32 10° NNW 08:38:28 63° W 08:40:35 40° SSW visible
